Location: The Saddle
(36.8333°N, 80.3417°W)
Time: 08:29:03
(UTC-05:00)

A-11 Canister half - Pass Details

Date: 10 December 2023
Orbit: 1512 x 1687 km, 47.2° (Epoch: 27 February)

Event Time Altitude Azimuth Distance (km) Brightness Sun altitude
Rises 22:25:30 0° 231° (SW) 4,661 - -62.8°
Reaches altitude 10° 22:28:29 10° 230° (SW) 3,695 - -63.3°
Maximum altitude 22:37:51 83° 144° (SE) 1,578 - -65.0°
Drops below altitude 10° 22:47:36 10° 58° (ENE) 3,835 - -66.7°
Sets 22:50:46 0° 58° (ENE) 4,847 - -67.3°
